| time (UTC) | temp F | wind direction | speed MPH | gust MPH | rain 1hr in | rain 24hr in | rain mn in | humidity % | barometer mb |
| 20260510024300 | 52 | 292 | 3.0 | 3.0 | 0.00 | 0.00 | 0.00 | 38 | 1012.8 |
| 20260510023756 | 52 | 301 | 3.0 | 3.0 | 0.00 | 0.00 | 0.00 | 37 | 1012.7 |
| 20260510023253 | 52 | 258 | 2.0 | 2.0 | 0.00 | 0.00 | 0.00 | 37 | 1012.4 |
| 20260510022750 | 53 | 246 | 1.0 | 2.0 | 0.00 | 0.00 | 0.00 | 37 | 1012.6 |
| 20260510022249 | 53 | 305 | 2.0 | 2.0 | 0.00 | 0.00 | 0.00 | 36 | 1012.3 |
| 20260510021749 | 53 | 334 | 3.0 | 3.0 | 0.00 | 0.00 | 0.00 | 36 | 1012.2 |
| 20260510021247 | 53 | 288 | 3.0 | 3.0 | 0.00 | 0.00 | 0.00 | 36 | 1012.0 |
| 20260510020742 | 53 | 292 | 3.0 | 3.0 | 0.00 | 0.00 | 0.00 | 35 | 1012.0 |
| 20260510020237 | 53 | 325 | 4.0 | 6.0 | 0.00 | 0.00 | 0.00 | 36 | 1011.9 |
| 20260510015733 | 53 | 331 | 3.0 | 3.0 | 0.00 | 0.00 | 0.00 | 36 | 1011.6 |
| 20260510015230 | 53 | 236 | 3.0 | 5.0 | 0.00 | 0.00 | 0.00 | 37 | 1011.4 |
| 20260510014724 | 53 | 253 | 2.0 | 2.0 | 0.00 | 0.00 | 0.00 | 37 | 1011.5 |
| 20260510014222 | 53 | 324 | 5.0 | 5.0 | 0.00 | 0.00 | 0.00 | 37 | 1011.5 |
| 20260510013718 | 54 | 256 | 1.0 | 2.0 | 0.00 | 0.00 | 0.00 | 37 | 1011.1 |
| 20260510013213 | 54 | 313 | 2.0 | 2.0 | 0.00 | 0.00 | 0.00 | 36 | 1011.3 |
| 20260510012708 | 54 | 243 | 1.0 | 1.0 | 0.00 | 0.00 | 0.00 | 37 | 1011.0 |
| 20260510012203 | 55 | 316 | 3.0 | 3.0 | 0.00 | 0.00 | 0.00 | 36 | 1010.9 |
| 20260510011658 | 55 | 359 | 4.0 | 5.0 | 0.00 | 0.00 | 0.00 | 35 | 1011.1 |
| 20260510011154 | 55 | 334 | 3.0 | 3.0 | 0.00 | 0.00 | 0.00 | 35 | 1011.0 |
| 20260510010650 | 55 | 326 | 3.0 | 3.0 | 0.00 | 0.00 | 0.00 | 34 | 1010.8 |
| 20260510010148 | 55 | 310 | 4.0 | 5.0 | 0.00 | 0.00 | 0.00 | 35 | 1010.7 |
| 20260510005644 | 56 | 316 | 5.0 | 7.0 | 0.00 | 0.00 | 0.00 | 35 | 1010.7 |
| 20260510005141 | 56 | 284 | 5.0 | 6.0 | 0.00 | 0.00 | 0.00 | 34 | 1010.7 |
| 20260510004639 | 56 | 311 | 4.0 | 5.0 | 0.00 | 0.00 | 0.00 | 33 | 1010.5 |
| 20260510004137 | 56 | 268 | 4.0 | 5.0 | 0.00 | 0.00 | 0.00 | 33 | 1010.5 |
| 20260510003634 | 56 | 350 | 6.0 | 7.0 | 0.00 | 0.00 | 0.00 | 32 | 1010.4 |
| 20260510003129 | 57 | 344 | 8.0 | 9.0 | 0.00 | 0.00 | 0.00 | 32 | 1010.3 |
| 20260510002629 | 57 | 310 | 5.0 | 6.0 | 0.00 | 0.00 | 0.00 | 33 | 1010.5 |
| 20260510002127 | 57 | 35 | 8.0 | 11.0 | 0.00 | 0.00 | 0.00 | 33 | 1010.3 |
| 20260510001623 | 57 | 310 | 3.0 | 3.0 | 0.00 | 0.00 | 0.00 | 33 | 1010.3 |
| 20260510001122 | 57 | 40 | 8.0 | 11.0 | 0.00 | 0.00 | 0.00 | 33 | 1010.2 |
| 20260510000622 | 57 | 325 | 6.0 | 7.0 | 0.00 | 0.00 | 0.00 | 33 | 1009.8 |
| 20260510000120 | 57 | 285 | 8.0 | 9.0 | 0.00 | 0.00 | 0.00 | 33 | 1010.0 |
| 20260509235616 | 57 | 313 | 9.0 | 11.0 | 0.00 | 0.00 | 0.00 | 32 | 1010.0 |
| 20260509235113 | 58 | 320 | 6.0 | 7.0 | 0.00 | 0.00 | 0.00 | 33 | 1009.9 |
| 20260509234608 | 58 | 311 | 11.0 | 13.0 | 0.00 | 0.00 | 0.00 | 32 | 1009.8 |
| 20260509234107 | 58 | 334 | 5.0 | 6.0 | 0.00 | 0.00 | 0.00 | 33 | 1009.6 |
| 20260509233604 | 58 | 354 | 3.0 | 5.0 | 0.00 | 0.00 | 0.00 | 32 | 1009.8 |
| 20260509233101 | 58 | 340 | 5.0 | 6.0 | 0.00 | 0.00 | 0.00 | 32 | 1009.9 |
| 20260509232557 | 58 | 45 | 4.0 | 6.0 | 0.00 | 0.00 | 0.00 | 33 | 1009.5 |
| 20260509232055 | 58 | 307 | 4.0 | 5.0 | 0.00 | 0.00 | 0.00 | 33 | 1009.4 |
| 20260509231551 | 57 | 304 | 6.0 | 7.0 | 0.00 | 0.00 | 0.00 | 32 | 1009.5 |
| 20260509231049 | 58 | 328 | 9.0 | 11.0 | 0.00 | 0.00 | 0.00 | 31 | 1009.3 |
| 20260509230545 | 58 | 1 | 5.0 | 9.0 | 0.00 | 0.00 | 0.00 | 33 | 1009.4 |
| 20260509230043 | 58 | 20 | 6.0 | 8.0 | 0.00 | 0.00 | 0.00 | 33 | 1009.4 |
| 20260509225538 | 58 | 35 | 7.0 | 9.0 | 0.00 | 0.00 | 0.00 | 33 | 1009.3 |
| 20260509225033 | 58 | 331 | 4.0 | 5.0 | 0.00 | 0.00 | 0.00 | 32 | 1009.1 |
| 20260509224529 | 59 | 357 | 7.0 | 9.0 | 0.00 | 0.00 | 0.00 | 31 | 1008.9 |
| 20260509224026 | 58 | 320 | 5.0 | 6.0 | 0.00 | 0.00 | 0.00 | 32 | 1009.0 |
| 20260509223523 | 58 | 354 | 7.0 | 10.0 | 0.00 | 0.00 | 0.00 | 32 | 1009.0 |
| 20260509223021 | 58 | 10 | 7.0 | 9.0 | 0.00 | 0.00 | 0.00 | 33 | 1008.7 |
| 20260509222517 | 58 | 17 | 5.0 | 6.0 | 0.00 | 0.00 | 0.00 | 32 | 1009.0 |
| 20260509222012 | 58 | 342 | 5.0 | 6.0 | 0.00 | 0.00 | 0.00 | 32 | 1009.0 |
| 20260509221509 | 58 | 0 | 5.0 | 9.0 | 0.00 | 0.00 | 0.00 | 33 | 1008.9 |
| 20260509221005 | 58 | 301 | 5.0 | 6.0 | 0.00 | 0.00 | 0.00 | 32 | 1008.8 |
| 20260509220501 | 58 | 316 | 5.0 | 6.0 | 0.00 | 0.00 | 0.00 | 32 | 1008.9 |
| 20260509215957 | 58 | 18 | 3.0 | 3.0 | 0.00 | 0.00 | 0.00 | 31 | 1009.0 |
| 20260509215452 | 58 | 35 | 9.0 | 11.0 | 0.00 | 0.00 | 0.00 | 31 | 1008.7 |
| 20260509214950 | 58 | 347 | 12.0 | 15.0 | 0.00 | 0.00 | 0.00 | 31 | 1008.8 |
| 20260509214447 | 58 | 34 | 8.0 | 11.0 | 0.00 | 0.00 | 0.00 | 33 | 1009.1 |
| 20260509213944 | 58 | 358 | 5.0 | 6.0 | 0.00 | 0.00 | 0.00 | 31 | 1008.8 |
| 20260509213440 | 58 | 359 | 7.0 | 9.0 | 0.00 | 0.00 | 0.00 | 31 | 1008.7 |
| 20260509212937 | 58 | 27 | 9.0 | 11.0 | 0.00 | 0.00 | 0.00 | 34 | 1008.9 |
| 20260509212434 | 58 | 20 | 9.0 | 11.0 | 0.00 | 0.00 | 0.00 | 31 | 1008.8 |
| 20260509211930 | 58 | 19 | 13.0 | 16.0 | 0.00 | 0.00 | 0.00 | 31 | 1008.7 |
| 20260509211426 | 58 | 19 | 6.0 | 8.0 | 0.00 | 0.00 | 0.00 | 32 | 1008.7 |
| 20260509210923 | 58 | 11 | 11.0 | 18.0 | 0.00 | 0.00 | 0.00 | 32 | 1008.8 |
| 20260509210420 | 59 | 320 | 5.0 | 6.0 | 0.00 | 0.00 | 0.00 | 32 | 1008.5 |
| 20260509205915 | 59 | 333 | 4.0 | 5.0 | 0.00 | 0.00 | 0.00 | 32 | 1008.6 |
| 20260509205415 | 58 | 337 | 5.0 | 6.0 | 0.00 | 0.00 | 0.00 | 33 | 1008.6 |
| 20260509204912 | 58 | 324 | 6.0 | 7.0 | 0.00 | 0.00 | 0.00 | 33 | 1008.8 |
| 20260509204408 | 58 | 13 | 17.0 | 21.0 | 0.00 | 0.00 | 0.00 | 32 | 1008.6 |
| 20260509203904 | 58 | 334 | 5.0 | 6.0 | 0.00 | 0.00 | 0.00 | 32 | 1008.6 |
| 20260509203400 | 57 | 324 | 7.0 | 8.0 | 0.00 | 0.00 | 0.00 | 34 | 1008.5 |
| 20260509202858 | 57 | 338 | 8.0 | 9.0 | 0.00 | 0.00 | 0.00 | 34 | 1008.7 |
| 20260509202353 | 57 | 19 | 7.0 | 9.0 | 0.00 | 0.00 | 0.00 | 35 | 1008.5 |
| 20260509201849 | 58 | 49 | 8.0 | 13.0 | 0.00 | 0.00 | 0.00 | 35 | 1008.6 |
| 20260509201345 | 58 | 349 | 4.0 | 6.0 | 0.00 | 0.00 | 0.00 | 33 | 1008.4 |
| 20260509200842 | 58 | 331 | 8.0 | 8.0 | 0.00 | 0.00 | 0.00 | 33 | 1008.4 |
| 20260509200336 | 58 | 304 | 7.0 | 7.0 | 0.00 | 0.00 | 0.00 | 34 | 1008.5 |
| 20260509195834 | 57 | 311 | 4.0 | 5.0 | 0.00 | 0.00 | 0.00 | 34 | 1008.2 |
| 20260509195334 | 57 | 289 | 8.0 | 9.0 | 0.00 | 0.00 | 0.00 | 35 | 1008.3 |
| 20260509194833 | 58 | 42 | 10.0 | 13.0 | 0.00 | 0.00 | 0.00 | 34 | 1008.2 |
| 20260509194330 | 57 | 328 | 4.0 | 5.0 | 0.00 | 0.00 | 0.00 | 33 | 1008.3 |
| 20260509193826 | 57 | 311 | 7.0 | 10.0 | 0.00 | 0.00 | 0.00 | 32 | 1008.4 |
| 20260509193321 | 57 | 8 | 12.0 | 16.0 | 0.00 | 0.00 | 0.00 | 33 | 1008.2 |
| 20260509192817 | 57 | 350 | 10.0 | 11.0 | 0.00 | 0.00 | 0.00 | 33 | 1008.2 |
| 20260509192314 | 57 | 2 | 7.0 | 13.0 | 0.00 | 0.00 | 0.00 | 34 | 1008.2 |
| 20260509191809 | 57 | 323 | 9.0 | 13.0 | 0.00 | 0.00 | 0.00 | 33 | 1008.0 |
| 20260509191305 | 57 | 307 | 9.0 | 10.0 | 0.00 | 0.00 | 0.00 | 34 | 1007.9 |
| 20260509190801 | 58 | 330 | 7.0 | 10.0 | 0.00 | 0.00 | 0.00 | 35 | 1008.0 |
| 20260509190258 | 57 | 9 | 5.0 | 6.0 | 0.00 | 0.00 | 0.00 | 38 | 1008.1 |
| 20260509185755 | 57 | 35 | 14.0 | 17.0 | 0.00 | 0.00 | 0.00 | 35 | 1008.0 |
| 20260509185251 | 57 | 2 | 10.0 | 14.0 | 0.00 | 0.00 | 0.00 | 35 | 1007.9 |
| 20260509184749 | 56 | 49 | 6.0 | 8.0 | 0.00 | 0.00 | 0.00 | 39 | 1007.9 |
| 20260509184247 | 56 | 40 | 6.0 | 7.0 | 0.00 | 0.00 | 0.00 | 38 | 1008.0 |
| 20260509183743 | 57 | 13 | 10.0 | 14.0 | 0.00 | 0.00 | 0.00 | 36 | 1007.9 |
| 20260509183238 | 56 | 320 | 6.0 | 8.0 | 0.00 | 0.00 | 0.00 | 37 | 1008.0 |
| 20260509182734 | 56 | 59 | 14.0 | 31.0 | 0.00 | 0.00 | 0.00 | 40 | 1007.8 |
| 20260509182231 | 56 | 63 | 7.0 | 11.0 | 0.00 | 0.00 | 0.00 | 38 | 1007.7 |
| 20260509181729 | 56 | 6 | 12.0 | 15.0 | 0.00 | 0.00 | 0.00 | 36 | 1007.9 |
| 20260509181226 | 55 | 13 | 8.0 | 9.0 | 0.00 | 0.00 | 0.00 | 38 | 1007.8 |
| 20260509180723 | 56 | 323 | 9.0 | 11.0 | 0.00 | 0.00 | 0.00 | 37 | 1007.7 |
| 20260509180219 | 56 | 318 | 7.0 | 8.0 | 0.00 | 0.00 | 0.00 | 39 | 1007.7 |
| 20260509175716 | 56 | 313 | 6.0 | 7.0 | 0.00 | 0.00 | 0.00 | 39 | 1007.7 |
| 20260509175212 | 55 | 297 | 8.0 | 9.0 | 0.00 | 0.00 | 0.00 | 41 | 1007.7 |
| 20260509174708 | 55 | 319 | 5.0 | 7.0 | 0.00 | 0.00 | 0.00 | 41 | 1007.7 |
| 20260509174203 | 55 | 299 | 5.0 | 6.0 | 0.00 | 0.00 | 0.00 | 40 | 1007.7 |
| 20260509173700 | 55 | 354 | 5.0 | 7.0 | 0.00 | 0.00 | 0.00 | 42 | 1008.0 |
| 20260509173155 | 55 | 44 | 7.0 | 8.0 | 0.00 | 0.00 | 0.00 | 43 | 1007.7 |
| 20260509172652 | 55 | 324 | 6.0 | 8.0 | 0.00 | 0.00 | 0.00 | 42 | 1007.8 |
| 20260509172148 | 55 | 344 | 6.0 | 8.0 | 0.00 | 0.00 | 0.00 | 42 | 1007.6 |
| 20260509171643 | 55 | 9 | 5.0 | 7.0 | 0.00 | 0.00 | 0.00 | 43 | 1007.5 |
| 20260509171140 | 54 | 344 | 7.0 | 9.0 | 0.00 | 0.00 | 0.00 | 45 | 1007.6 |
| 20260509170637 | 54 | 50 | 5.0 | 8.0 | 0.00 | 0.00 | 0.00 | 43 | 1007.5 |
| 20260509170133 | 54 | 6 | 16.0 | 21.0 | 0.00 | 0.00 | 0.00 | 41 | 1007.4 |
| 20260509165631 | 54 | 328 | 6.0 | 8.0 | 0.00 | 0.00 | 0.00 | 43 | 1007.4 |
| 20260509165127 | 54 | 25 | 7.0 | 9.0 | 0.00 | 0.00 | 0.00 | 44 | 1007.3 |
| 20260509164623 | 53 | 30 | 12.0 | 16.0 | 0.00 | 0.00 | 0.00 | 43 | 1007.2 |
| 20260509164119 | 54 | 4 | 13.0 | 18.0 | 0.00 | 0.00 | 0.00 | 44 | 1007.3 |
| 20260509163617 | 54 | 271 | 7.0 | 10.0 | 0.00 | 0.00 | 0.00 | 45 | 1007.1 |
| 20260509163112 | 53 | 301 | 7.0 | 9.0 | 0.00 | 0.00 | 0.00 | 47 | 1007.1 |
| 20260509162610 | 53 | 23 | 11.0 | 20.0 | 0.00 | 0.00 | 0.00 | 48 | 1007.1 |
| 20260509162106 | 53 | 331 | 7.0 | 8.0 | 0.00 | 0.00 | 0.00 | 47 | 1007.0 |
| 20260509161603 | 53 | 2 | 12.0 | 15.0 | 0.00 | 0.00 | 0.00 | 46 | 1006.9 |
| 20260509161103 | 53 | 313 | 12.0 | 15.0 | 0.00 | 0.00 | 0.00 | 47 | 1006.6 |
| 20260509160559 | 53 | 304 | 7.0 | 8.0 | 0.00 | 0.00 | 0.00 | 47 | 1006.8 |
| 20260509160054 | 53 | 5 | 10.0 | 13.0 | 0.00 | 0.00 | 0.00 | 48 | 1006.5 |
| 20260509155551 | 54 | 16 | 7.0 | 9.0 | 0.00 | 0.00 | 0.00 | 47 | 1006.4 |
| 20260509155047 | 54 | 29 | 12.0 | 14.0 | 0.00 | 0.00 | 0.00 | 45 | 1006.6 |
| 20260509154543 | 53 | 2 | 9.0 | 11.0 | 0.00 | 0.00 | 0.00 | 46 | 1006.5 |
| 20260509154041 | 53 | 5 | 7.0 | 9.0 | 0.00 | 0.00 | 0.00 | 48 | 1006.5 |
| 20260509153538 | 53 | 340 | 9.0 | 14.0 | 0.00 | 0.00 | 0.00 | 47 | 1006.4 |
| 20260509153034 | 53 | 309 | 7.0 | 9.0 | 0.00 | 0.00 | 0.00 | 47 | 1006.3 |
| 20260509152530 | 53 | 22 | 7.0 | 9.0 | 0.00 | 0.00 | 0.00 | 47 | 1006.2 |
| 20260509152027 | 53 | 5 | 8.0 | 10.0 | 0.00 | 0.00 | 0.00 | 50 | 1006.3 |
| 20260509151523 | 53 | 303 | 11.0 | 17.0 | 0.00 | 0.00 | 0.00 | 49 | 1006.0 |
| 20260509151021 | 53 | 323 | 8.0 | 10.0 | 0.00 | 0.00 | 0.00 | 54 | 1005.7 |
| 20260509150519 | 53 | 2 | 11.0 | 15.0 | 0.00 | 0.00 | 0.00 | 51 | 1005.7 |
| 20260509150017 | 53 | 24 | 5.0 | 7.0 | 0.00 | 0.00 | 0.00 | 54 | 1005.7 |
| 20260509145512 | 52 | 314 | 5.0 | 7.0 | 0.00 | 0.00 | 0.00 | 56 | 1005.7 |
| 20260509145008 | 52 | 305 | 8.0 | 10.0 | 0.00 | 0.00 | 0.00 | 58 | 1005.3 |
| 20260509144505 | 52 | 355 | 9.0 | 14.0 | 0.00 | 0.00 | 0.00 | 58 | 1005.5 |
| 20260509144002 | 52 | 346 | 9.0 | 11.0 | 0.00 | 0.00 | 0.00 | 59 | 1005.5 |
| 20260509143459 | 51 | 33 | 5.0 | 7.0 | 0.00 | 0.00 | 0.00 | 58 | 1005.4 |
| 20260509142955 | 52 | 53 | 5.0 | 6.0 | 0.00 | 0.00 | 0.00 | 61 | 1005.6 |
| 20260509142452 | 51 | 26 | 8.0 | 9.0 | 0.00 | 0.00 | 0.00 | 62 | 1005.4 |
| 20260509141948 | 51 | 278 | 5.0 | 7.0 | 0.00 | 0.00 | 0.00 | 63 | 1005.4 |
| 20260509141444 | 51 | 297 | 5.0 | 7.0 | 0.00 | 0.00 | 0.00 | 65 | 1005.2 |
| 20260509140941 | 51 | 43 | 9.0 | 13.0 | 0.00 | 0.00 | 0.00 | 65 | 1005.4 |
| 20260509140437 | 50 | 2 | 6.0 | 8.0 | 0.00 | 0.00 | 0.00 | 66 | 1005.2 |
| 20260509135936 | 50 | 11 | 9.0 | 10.0 | 0.00 | 0.00 | 0.00 | 68 | 1005.3 |
| 20260509135433 | 50 | 358 | 7.0 | 9.0 | 0.00 | 0.00 | 0.00 | 68 | 1005.2 |
| 20260509134930 | 50 | 356 | 6.0 | 9.0 | 0.00 | 0.00 | 0.00 | 70 | 1005.2 |
| 20260509134428 | 50 | 327 | 5.0 | 6.0 | 0.00 | 0.00 | 0.00 | 72 | 1005.1 |
| 20260509133925 | 49 | 37 | 7.0 | 8.0 | 0.00 | 0.00 | 0.00 | 73 | 1004.9 |
| 20260509133421 | 49 | 13 | 8.0 | 10.0 | 0.00 | 0.00 | 0.00 | 74 | 1004.9 |
| 20260509132920 | 49 | 47 | 5.0 | 6.0 | 0.00 | 0.00 | 0.00 | 75 | 1004.9 |
| 20260509132418 | 49 | 20 | 5.0 | 7.0 | 0.00 | 0.00 | 0.00 | 78 | 1004.5 |
| 20260509131914 | 49 | 348 | 6.0 | 7.0 | 0.00 | 0.00 | 0.00 | 80 | 1004.7 |
| 20260509131412 | 49 | 308 | 3.0 | 3.0 | 0.00 | 0.00 | 0.00 | 82 | 1004.5 |
| 20260509130908 | 48 | 19 | 6.0 | 8.0 | 0.00 | 0.00 | 0.00 | 82 | 1004.6 |
| 20260509130403 | 48 | 347 | 3.0 | 3.0 | 0.00 | 0.00 | 0.00 | 83 | 1004.5 |
| 20260509125900 | 48 | 1 | 3.0 | 5.0 | 0.00 | 0.00 | 0.00 | 83 | 1004.4 |
| 20260509125357 | 48 | 5 | 9.0 | 11.0 | 0.00 | 0.00 | 0.00 | 84 | 1004.3 |
| 20260509124853 | 48 | 30 | 5.0 | 6.0 | 0.00 | 0.00 | 0.00 | 84 | 1004.2 |
| 20260509124350 | 48 | 0 | 8.0 | 10.0 | 0.00 | 0.00 | 0.00 | 84 | 1004.1 |
| 20260509123848 | 48 | 11 | 7.0 | 8.0 | 0.00 | 0.00 | 0.00 | 85 | 1004.0 |
| 20260509123345 | 48 | 354 | 9.0 | 11.0 | 0.00 | 0.00 | 0.00 | 85 | 1004.0 |
| 20260509122841 | 48 | 8 | 7.0 | 8.0 | 0.00 | 0.00 | 0.00 | 85 | 1003.8 |
| 20260509122338 | 48 | 325 | 3.0 | 3.0 | 0.00 | 0.00 | 0.00 | 85 | 1003.9 |
| 20260509121835 | 48 | 324 | 7.0 | 8.0 | 0.00 | 0.00 | 0.00 | 85 | 1003.7 |
| 20260509121332 | 48 | 36 | 7.0 | 9.0 | 0.00 | 0.00 | 0.00 | 85 | 1003.6 |
| 20260509120830 | 49 | 315 | 5.0 | 6.0 | 0.00 | 0.00 | 0.00 | 84 | 1003.6 |
| 20260509120327 | 49 | 312 | 4.0 | 5.0 | 0.00 | 0.00 | 0.00 | 85 | 1003.4 |
| 20260509115826 | 49 | 346 | 6.0 | 7.0 | 0.00 | 0.00 | 0.00 | 84 | 1003.4 |
| 20260509115322 | 49 | 344 | 5.0 | 6.0 | 0.00 | 0.00 | 0.00 | 84 | 1003.3 |
| 20260509114820 | 49 | 321 | 5.0 | 5.0 | 0.00 | 0.00 | 0.00 | 85 | 1003.0 |
| 20260509114319 | 49 | 344 | 6.0 | 7.0 | 0.00 | 0.00 | 0.00 | 86 | 1003.2 |
| 20260509113818 | 49 | 358 | 6.0 | 7.0 | 0.00 | 0.00 | 0.00 | 87 | 1002.8 |
| 20260509113314 | 49 | 300 | 2.0 | 2.0 | 0.00 | 0.00 | 0.00 | 89 | 1002.9 |
| 20260509112811 | 49 | 335 | 3.0 | 3.0 | 0.00 | 0.00 | 0.00 | 89 | 1002.7 |
| 20260509112308 | 49 | 271 | 1.0 | 2.0 | 0.00 | 0.00 | 0.00 | 89 | 1002.9 |
| 20260509111805 | 49 | 256 | 2.0 | 2.0 | 0.00 | 0.00 | 0.00 | 89 | 1002.8 |
| 20260509111302 | 49 | 259 | 2.0 | 2.0 | 0.00 | 0.00 | 0.00 | 89 | 1002.4 |
| 20260509110759 | 49 | 277 | 2.0 | 2.0 | 0.00 | 0.00 | 0.00 | 88 | 1002.1 |
| 20260509110255 | 49 | 306 | 2.0 | 2.0 | 0.00 | 0.00 | 0.00 | 87 | 1002.1 |
| 20260509105754 | 49 | 329 | 2.0 | 3.0 | 0.00 | 0.00 | 0.00 | 87 | 1002.1 |
| 20260509105251 | 49 | 311 | 2.0 | 2.0 | 0.00 | 0.00 | 0.00 | 87 | 1002.0 |
| 20260509104748 | 49 | 298 | 3.0 | 3.0 | 0.00 | 0.00 | 0.00 | 87 | 1001.8 |
| 20260509104245 | 49 | 272 | 2.0 | 2.0 | 0.00 | 0.00 | 0.00 | 86 | 1001.6 |
| 20260509103743 | 49 | 245 | 1.0 | 1.0 | 0.00 | 0.00 | 0.00 | 86 | 1001.6 |
| 20260509103240 | 49 | 249 | 1.0 | 1.0 | 0.00 | 0.00 | 0.00 | 86 | 1001.6 |
| 20260509102738 | 50 | 248 | 1.0 | 1.0 | 0.00 | 0.00 | 0.00 | 85 | 1001.5 |
| 20260509102235 | 50 | 260 | 1.0 | 1.0 | 0.00 | 0.00 | 0.00 | 84 | 1001.5 |
| 20260509101731 | 50 | 246 | 1.0 | 1.0 | 0.00 | 0.00 | 0.00 | 84 | 1001.5 |
| 20260509101227 | 50 | 230 | 0.0 | 1.0 | 0.00 | 0.00 | 0.00 | 84 | 1001.4 |
| 20260509100725 | 50 | 258 | 1.0 | 1.0 | 0.00 | 0.00 | 0.00 | 84 | 1001.5 |
| 20260509100222 | 49 | 233 | 1.0 | 1.0 | 0.00 | 0.00 | 0.00 | 83 | 1001.4 |
| 20260509095719 | 50 | 250 | 1.0 | 1.0 | 0.00 | 0.00 | 0.00 | 82 | 1001.3 |
| 20260509095216 | 50 | 338 | 2.0 | 2.0 | 0.00 | 0.00 | 0.00 | 82 | 1001.5 |
| 20260509094713 | 50 | 217 | 1.0 | 1.0 | 0.00 | 0.00 | 0.00 | 81 | 1001.4 |
| 20260509094210 | 50 | 242 | 0.0 | 1.0 | 0.00 | 0.00 | 0.00 | 80 | 1001.3 |
| 20260509093708 | 50 | 265 | 2.0 | 2.0 | 0.00 | 0.00 | 0.00 | 79 | 1001.4 |
| 20260509093205 | 51 | 221 | 0.0 | 0.0 | 0.00 | 0.00 | 0.00 | 77 | 1001.5 |
| 20260509092703 | 51 | 13 | 3.0 | 3.0 | 0.00 | 0.00 | 0.00 | 75 | 1001.6 |
| 20260509092201 | 51 | 261 | 2.0 | 2.0 | 0.00 | 0.00 | 0.00 | 73 | 1002.0 |
| 20260509091659 | 51 | 254 | 2.0 | 2.0 | 0.00 | 0.00 | 0.00 | 72 | 1001.9 |
| 20260509091154 | 51 | 265 | 1.0 | 1.0 | 0.00 | 0.00 | 0.00 | 72 | 1001.8 |
| 20260509090652 | 51 | 277 | 1.0 | 2.0 | 0.00 | 0.00 | 0.00 | 71 | 1001.7 |
| 20260509090149 | 51 | 334 | 3.0 | 3.0 | 0.00 | 0.00 | 0.00 | 71 | 1001.7 |
| 20260509085647 | 52 | 322 | 1.0 | 2.0 | 0.00 | 0.00 | 0.00 | 70 | 1001.6 |
| 20260509085143 | 52 | 251 | 1.0 | 1.0 | 0.00 | 0.00 | 0.00 | 69 | 1001.7 |
| 20260509084640 | 52 | 311 | 3.0 | 3.0 | 0.00 | 0.00 | 0.00 | 68 | 1001.5 |
| 20260509084137 | 52 | 31 | 5.0 | 7.0 | 0.00 | 0.00 | 0.00 | 68 | 1001.5 |
| 20260509083635 | 52 | 41 | 2.0 | 2.0 | 0.00 | 0.00 | 0.00 | 66 | 1001.6 |
| 20260509083131 | 52 | 352 | 3.0 | 5.0 | 0.00 | 0.00 | 0.00 | 65 | 1001.7 |
| 20260509082628 | 52 | 39 | 4.0 | 5.0 | 0.00 | 0.00 | 0.00 | 64 | 1001.3 |
| 20260509082125 | 53 | 341 | 8.0 | 10.0 | 0.00 | 0.00 | 0.00 | 62 | 1001.5 |
| 20260509081622 | 53 | 5 | 4.0 | 5.0 | 0.00 | 0.00 | 0.00 | 59 | 1001.6 |
| 20260509081119 | 53 | 12 | 4.0 | 5.0 | 0.00 | 0.00 | 0.00 | 56 | 1001.5 |
| 20260509080617 | 53 | 20 | 2.0 | 2.0 | 0.00 | 0.00 | 0.00 | 55 | 1001.4 |
| 20260509080115 | 52 | 40 | 4.0 | 5.0 | 0.00 | 0.00 | 0.00 | 54 | 1001.3 |
| 20260509075613 | 52 | 330 | 3.0 | 3.0 | 0.00 | 0.00 | 0.00 | 54 | 1001.3 |
| 20260509075110 | 52 | 25 | 4.0 | 5.0 | 0.00 | 0.00 | 0.00 | 53 | 1001.4 |
| 20260509074607 | 51 | 2 | 5.0 | 7.0 | 0.00 | 0.00 | 0.00 | 53 | 1001.3 |
| 20260509074103 | 51 | 11 | 4.0 | 5.0 | 0.00 | 0.00 | 0.00 | 52 | 1001.4 |
| 20260509073600 | 51 | 281 | 2.0 | 2.0 | 0.00 | 0.00 | 0.00 | 53 | 1001.2 |
| 20260509073056 | 50 | 24 | 5.0 | 6.0 | 0.00 | 0.00 | 0.00 | 53 | 1001.2 |
| 20260509072553 | 49 | 29 | 3.0 | 5.0 | 0.00 | 0.00 | 0.00 | 61 | 1000.7 |
| 20260509072050 | 51 | 214 | 0.0 | 0.0 | 0.00 | 0.00 | 0.00 | 62 | 1000.3 |
| 20260509071547 | 51 | 212 | 0.0 | 0.0 | 0.00 | 0.00 | 0.00 | 50 | 1000.4 |
| 20260509071044 | 52 | 218 | 0.0 | 0.0 | 0.00 | 0.00 | 0.00 | 49 | 1000.5 |
| 20260509070541 | 52 | 216 | 0.0 | 0.0 | 0.00 | 0.00 | 0.00 | 48 | 1000.7 |
| 20260509070037 | 52 | 214 | 0.0 | 0.0 | 0.00 | 0.00 | 0.00 | 48 | 1000.6 |
| 20260509065533 | 51 | 239 | 0.0 | 1.0 | 0.00 | 0.00 | 0.00 | 48 | 1000.6 |
| 20260509065029 | 51 | 216 | 0.0 | 0.0 | 0.00 | 0.00 | 0.00 | 49 | 1000.7 |
| 20260509064527 | 50 | 224 | 0.0 | 0.0 | 0.00 | 0.00 | 0.00 | 51 | 1000.7 |
| 20260509064025 | 50 | 211 | 0.0 | 0.0 | 0.00 | 0.00 | 0.00 | 53 | 1000.7 |
| 20260509063520 | 48 | 215 | 0.0 | 0.0 | 0.00 | 0.00 | 0.00 | 61 | 1000.8 |
| 20260509063018 | 48 | 214 | 0.0 | 0.0 | 0.00 | 0.00 | 0.00 | 61 | 1000.8 |
| 20260509062515 | 49 | 222 | 0.0 | 0.0 | 0.00 | 0.00 | 0.00 | 59 | 1000.6 |
| 20260509062012 | 49 | 207 | 0.0 | 0.0 | 0.00 | 0.00 | 0.00 | 53 | 1000.5 |
| 20260509061509 | 48 | 206 | 0.0 | 0.0 | 0.00 | 0.00 | 0.00 | 54 | 1000.7 |
| 20260509061007 | 47 | 213 | 0.0 | 0.0 | 0.00 | 0.00 | 0.00 | 57 | 1000.7 |
| 20260509060504 | 47 | 217 | 0.0 | 0.0 | 0.00 | 0.00 | 0.00 | 56 | 1000.7 |
| 20260509055959 | 48 | 224 | 0.0 | 0.0 | 0.00 | 0.00 | 0.00 | 60 | 1000.4 |
| 20260509055454 | 48 | 222 | 0.0 | 0.0 | 0.00 | 0.00 | 0.00 | 58 | 1000.3 |
| 20260509054951 | 48 | 214 | 0.0 | 0.0 | 0.00 | 0.00 | 0.00 | 59 | 1000.4 |
| 20260509054448 | 48 | 210 | 0.0 | 0.0 | 0.00 | 0.00 | 0.00 | 58 | 1000.6 |
| 20260509053946 | 49 | 202 | 0.0 | 0.0 | 0.00 | 0.00 | 0.00 | 55 | 1000.7 |
| 20260509053444 | 49 | 209 | 0.0 | 0.0 | 0.00 | 0.00 | 0.00 | 58 | 1000.9 |
| 20260509052941 | 49 | 202 | 1.0 | 1.0 | 0.00 | 0.00 | 0.00 | 53 | 1000.7 |
| 20260509052438 | 49 | 195 | 0.0 | 0.0 | 0.00 | 0.00 | 0.00 | 51 | 1001.1 |
| 20260509051936 | 48 | 211 | 0.0 | 0.0 | 0.00 | 0.00 | 0.00 | 51 | 1001.1 |
| 20260509051434 | 48 | 216 | 0.0 | 0.0 | 0.00 | 0.00 | 0.00 | 56 | 1001.2 |
| 20260509050931 | 48 | 212 | 0.0 | 0.0 | 0.00 | 0.00 | 0.00 | 56 | 1001.4 |
| 20260509050427 | 48 | 213 | 0.0 | 1.0 | 0.00 | 0.00 | 0.00 | 54 | 1001.5 |
| 20260509045924 | 49 | 216 | 0.0 | 0.0 | 0.00 | 0.00 | 0.00 | 57 | 1001.2 |
| 20260509045421 | 50 | 200 | 1.0 | 2.0 | 0.00 | 0.00 | 0.00 | 50 | 1001.2 |
| 20260509044918 | 50 | 203 | 1.0 | 1.0 | 0.00 | 0.00 | 0.00 | 48 | 1001.3 |
| 20260509044416 | 50 | 204 | 0.0 | 0.0 | 0.00 | 0.00 | 0.00 | 51 | 1001.6 |
| 20260509043913 | 50 | 203 | 0.0 | 0.0 | 0.00 | 0.00 | 0.00 | 52 | 1001.5 |
| 20260509043408 | 51 | 202 | 0.0 | 0.0 | 0.00 | 0.00 | 0.00 | 51 | 1001.6 |
| 20260509042904 | 52 | 202 | 0.0 | 0.0 | 0.00 | 0.00 | 0.00 | 46 | 1001.6 |
| 20260509042401 | 52 | 217 | 1.0 | 1.0 | 0.00 | 0.00 | 0.00 | 46 | 1001.5 |
| 20260509041857 | 54 | 209 | 0.0 | 0.0 | 0.00 | 0.00 | 0.00 | 47 | 1001.5 |
| 20260509041354 | 56 | 213 | 0.0 | 0.0 | 0.00 | 0.00 | 0.00 | 40 | 1001.6 |
| 20260509040853 | 56 | 225 | 0.0 | 0.0 | 0.00 | 0.00 | 0.00 | 37 | 1001.6 |
| 20260509040350 | 56 | 217 | 1.0 | 1.0 | 0.00 | 0.00 | 0.00 | 36 | 1001.7 |
| 20260509035847 | 56 | 228 | 1.0 | 1.0 | 0.00 | 0.00 | 0.00 | 36 | 1001.6 |
| 20260509035344 | 57 | 269 | 1.0 | 1.0 | 0.00 | 0.00 | 0.00 | 36 | 1001.7 |
| 20260509034840 | 57 | 255 | 1.0 | 1.0 | 0.00 | 0.00 | 0.00 | 35 | 1001.8 |
| 20260509034338 | 57 | 254 | 1.0 | 1.0 | 0.00 | 0.00 | 0.00 | 35 | 1002.0 |
| 20260509033835 | 57 | 272 | 1.0 | 2.0 | 0.00 | 0.00 | 0.00 | 34 | 1001.7 |
| 20260509033332 | 58 | 265 | 2.0 | 2.0 | 0.00 | 0.00 | 0.00 | 33 | 1001.8 |
| 20260509032829 | 58 | 272 | 3.0 | 3.0 | 0.00 | 0.00 | 0.00 | 33 | 1001.6 |
| 20260509032326 | 58 | 297 | 2.0 | 2.0 | 0.00 | 0.00 | 0.00 | 33 | 1001.9 |
| 20260509031824 | 59 | 306 | 3.0 | 3.0 | 0.00 | 0.00 | 0.00 | 33 | 1001.8 |
| 20260509031321 | 59 | 319 | 3.0 | 3.0 | 0.00 | 0.00 | 0.00 | 33 | 1001.6 |
| 20260509030819 | 59 | 266 | 2.0 | 2.0 | 0.00 | 0.00 | 0.00 | 33 | 1001.6 |
| 20260509030316 | 59 | 314 | 3.0 | 3.0 | 0.00 | 0.00 | 0.00 | 33 | 1001.6 |
| 20260509025813 | 59 | 326 | 2.0 | 2.0 | 0.00 | 0.00 | 0.00 | 33 | 1001.7 |
| 20260509025308 | 59 | 317 | 4.0 | 6.0 | 0.00 | 0.00 | 0.00 | 33 | 1001.5 |
| 20260509024804 | 59 | 227 | 1.0 | 1.0 | 0.00 | 0.00 | 0.00 | 34 | 1001.3 |